Location: Lac Lasalle
(46.0398°N, 74.1576°W)
Time: 06:28:58
(UTC-05:00)

AO-73 - Pass Details

Date: 13 December 2019
Orbit: 581 x 664 km, 97.6° (Epoch: 17 January)

Event Time Altitude Azimuth Distance (km) Brightness Sun altitude
Rises 18:02:17 0° 187° (S) 2,967 ? -18.4°
Reaches altitude 10° 18:04:39 10° 196° (SSW) 2,051 ? -18.8°
Maximum altitude 18:08:47 36° 263° (W) 1,016 ? -19.5°
Drops below altitude 10° 18:12:52 10° 331° (NNW) 2,024 ? -20.1°
Sets 18:15:12 0° 340° (NNW) 2,922 ? -20.5°
